Regional Weather Roundup
Issued by NWS

Home | Current Version | Previous Version | Text Only | Print | Product List | Glossary On
Versions: 1 2 3 4 5 6 7 8 9 10 11 12 13 14 15 16 17 18 19 20 21 22 23 24 25 26 27 28 29 30 31 32 33 34 35 36 37 38 39 40 41 42 43 44 45 46 47 48 49 50
000
ASHW40 PHFO 051832
RWRHI

WEATHER ROUNDUP FOR HAWAII
NATIONAL WEATHER SERVICE HONOLULU HI
800 AM HST THU MAY 05 2016

THIS IS AN AUTOMATED REPORT THAT HAS NOT BEEN QUALITY CONTROLLED.

NOTE..."FAIR" INDICATES FEW OR NO CLOUDS BELOW 12,000 FEET WITH NO
SIGNIFICANT WEATHER AND/OR OBSTRUCTIONS TO VISIBILITY.

* - THESE SITES REPORT LIMITED FIELDS

HIZ001>004-051900-
KAUAI-NIIHAU-

CITY           SKY/WX    TMP DP  RH WIND       PRES   REMARKS
LIHUE APT      SUNNY     79  68  69 E9        30.07R
PORT ALLEN*      N/A     79 N/A N/A E12         N/A
POIPU*           N/A     79 N/A N/A NE6         N/A
PRINCEVILLE*     N/A     75 N/A N/A SE8G14      N/A
KOKOLE POINT*  NOT AVBL
MOLOAA DAIRY*    N/A     77  70  78 SE9G17      N/A
WAIMEA HTS*    NOT AVBL
PUU OPAE*      NOT AVBL
PUU LUA*       NOT AVBL
MAKAHA RIDGE*    N/A     72  68  88 SW1         N/A
$$

HIZ005>011-051900-
OAHU-

CITY           SKY/WX    TMP DP  RH WIND       PRES   REMARKS
HONOLULU       MOSUNNY   78  67  68 NE8       30.05R
KALAELOA         N/A    N/A N/A N/A MISG      30.07R
KANEOHE MCB    PTSUNNY   77  67  71 E7        30.04R
WHEELER FIELD  FAIR      74  66  77 VRB2      30.06R
BELLOWS*         N/A    N/A N/A N/A NE8         N/A
KAHUKU*          N/A    N/A N/A N/A VRB8G14     N/A
WHEELER*       NOT AVBL
WAIANAE HARBOR NOT AVBL
DILLINGHAM*      N/A     63  52  67 MISG        N/A
KAHUKU TRN*      N/A     70  57  64 CALM        N/A
KAWAILOA*        N/A     72  64  78 W1          N/A
KII*             N/A     77  68  73 E12         N/A
MAKUA RANGE*   NOT AVBL
OAHU FOREST NW NOT AVBL
SCHOFIELD BRK*   N/A     75  66  73 MISG        N/A
SCHOFIELD S*   NOT AVBL
WAIANAE VLY*   NOT AVBL
KUAOKALA*      NOT AVBL
HONOULIUULI*   NOT AVBL
MOKUOLOE IS*   NOT AVBL
PALEHUA*       NOT AVBL
WAIAWA PHB*    NOT AVBL
$$

HIZ012>013-051900-
MOLOKAI-

CITY           SKY/WX    TMP DP  RH WIND       PRES   REMARKS
MOLOKAI AIRPT  SUNNY     76  64  66 SE3       30.07R
KALAUPAPA      NOT AVBL
MAKAPULAPAI*     N/A     81  70  69 E10         N/A
MOLOKAI 1*     NOT AVBL
PUU ALII*        N/A     59  56  91 E2G9        N/A
$$

HIZ016-051900-
KAHOOLAWE-

CITY           SKY/WX    TMP DP  RH WIND       PRES   REMARKS
KAHOOLAWE*       N/A     73 N/A N/A E1          N/A
HAKIOAWA*        N/A     74  65  74 MISG      30.49R
HONOKANAIA*      N/A     78  66  66 NE8G14    29.98R
KANELOA*         N/A     73  66  78 NE12G20     N/A
KEALIALALO*    NOT AVBL
LUA MAKIKA*    NOT AVBL
$$

HIZ014>015-051900-
LANAI-

CITY           SKY/WX    TMP DP  RH WIND       PRES   REMARKS
LANAI CITY     CLOUDY    73  66  78 W3        30.12R
LANAI 1*       NOT AVBL
$$

HIZ017>028-051900-
MAUI-

CITY           SKY/WX    TMP DP  RH WIND       PRES   REMARKS
KAHULUI        MOSUNNY   77  66  68 N6        30.05R
KAPALUA-W MAUI MOSUNNY   77  64  65 NE9       30.05
HANA AIRPORT   NOT AVBL
HANA*            N/A     77 N/A N/A SE6G13      N/A
HALEAKALA SUMM   N/A     54  12  19 E20         N/A
MAALAEA BAY*     N/A     79 N/A N/A VRB10G17    N/A
HALEAKALA*     NOT AVBL
KAUPO GAP*     NOT AVBL
KULA 1*          N/A     51  44  75 E1          N/A
$$

HIZ023>026-051900-
BIG ISLAND OF HAWAII COAST AND LOWER SLOPES-

CITY           SKY/WX    TMP DP  RH WIND       PRES   REMARKS
KAILUA KONA    MOSUNNY   77  65  66 CALM      30.03R
HILO           MOSUNNY   75  66  73 S5        30.07R
HONOKAA*         N/A     75 N/A N/A VRB1        N/A
KAWAIHAE MWT*    N/A     81 N/A N/A SE5         N/A
KAWAIHAE*        N/A     79 N/A N/A SW6       30.04R
SOUTH POINT*     N/A     73 N/A N/A VRB14G21    N/A
UPOLU AIRPORT*   N/A    N/A N/A N/A E10G17      N/A
KAMUELA*       PTCLDY    72  57  60 CALM      30.16R
HAKALAU*         N/A     56  53  89 S8G15       N/A
KALOKO-HONOKO*   N/A     79  66  65 CALM      30.03R
PALI 2*          N/A     68  55  64 W6G12       N/A
KEALAKOMO*       N/A     79  64  61 E9G15       N/A
KAUPULEHU*     NOT AVBL
KAPAPALA*        N/A     72  58  60 NE3G12      N/A
LOWER KAHUKU*    N/A     63 -27   2 N2G9        N/A
PUHE CS*         N/A     79  57  47 SE3         N/A
PUHO CS*         N/A     78  62  57 E1          N/A
PTA KEAMUKU*     N/A     64  57  77 CALM        N/A
WAIKOLOA*      NOT AVBL
$$

HIZ027>028-051900-
BIG ISLAND OF HAWAII INTERIOR AND SUMMMITS-

CITY           SKY/WX    TMP DP  RH WIND       PRES   REMARKS
BRADSHAW FIELD MOSUNNY   60  45  59 W9G17     30.33R
MK VISITOR CEN   N/A     52  28  40 S7          N/A
MAUNA KEA*       N/A     43   1  17 NE6         N/A
MAUNA LOA*       N/A     52   3  14 MISG        N/A
MAUNA LOA 1*   NOT AVBL
PTA KIPUKA*      N/A     46  37  71 SW7         N/A
PTA RANGE 17*    N/A     52  43  71 SE16G23     N/A
PTA WEST*        N/A     63  54  72 NW12G22     N/A
NENE CABIN*      N/A     48  48 100 E10G18      N/A
AHUMOA*        NOT AVBL
PTA PORTABLE*  NOT AVBL
PUU MALI*        N/A     63  41  45 N5          N/A
$$

HIC003-051900-
NORTHWEST ISLANDS-

CITY           SKY/WX    TMP DP  RH WIND       PRES   REMARKS
MIDWAY ISLAND  CLOUDY    63  52  67 N13G21    30.23R
MIDWAY NOS*      N/A     63 N/A N/A MISG      30.21R
FRENCH FRIGATE NOT AVBL
$$

PHZ110>124-180-051900-
BUOY REPORTS

STATION/POSITION TIME  TEMP    WIND        PRES    WAVE   SWELL
                       AIR SEA DIR/SP/G            HT/PER HT/DIR
                 (UTC) (F)     (DEG/KT/KT) (MB)    (FT/S) (FT/D)
BUOY 51001       1800   78 78   CALM  /  2 1016.5R
BUOY 51101       1750   76 76  140/ 12/ 16 1017.1R   6/13   5/250
BUOY 51100       NOT AVBL
BUOY 51002       1750   77 78   90/ 16/ 17 1016.1R   6/16   5/320
BUOY 51003       1750   77 78  130/  8/ 10 1016.8R   7/15   7/310
BUOY 51004       1750   78 79   90/ 16/ 19 1016.6R   7/ 8   5/340
BARBERS PT BUOY  NOT AVBL
WAIMEA BAY BUOY  1804      78                N/A     5/15   3/310
KAILUA BAY BUOY  1811      78                N/A     5/15   2/360
LANAI BUOY       1815      79                N/A     3/13   2/200
BARBERS PT 2     1803      78                N/A     5/15   3/280
PAUWELA MAUI     1809      77                N/A     6/ 8   2/320
HILO             1812      78                N/A     7/ 9   3/340
KANEOHE BAY BUOY 1806      77                N/A     5/ 8   2/360
HANALEI KAUAI    NOT AVBL
KAHULUI HARBOR   1800   75 77              1017.3R
HONOLULU HARBOR  1800   78 78              1018.3R
KILO NALU        NOT AVBL
HILO HARBOR      1800   78 76              1017.8R
MOKUOLOE         1700   76 78   50/  2/  3 1017.5R
NAWILIWILI       1800   77 80              1018.0R
WHOTS BUOY       NOT AVBL
BUOY 51028       NOT AVBL
$$

......................KEY........................................
  SKY/WX - SKY CONDITIONS/PRESENT WEATHER
  TMP    - TEMPERATURE IN FAHRENHEIT
  DWPT   - DEWPOINT IN FAHRENHEIT
  RH     - RELATIVE HUMIDITY IN PERCENT
  WIND   - DIRECTION AND SPEED /MPH FOR ISLANDS...KTS FOR BUOYS/
  PRES   - MEAN SEA LEVEL PRESSURE IN INCHES OF HG
  VSB    - VISIBILITY IN MILES
  HX     - HEAT INDEX
  WCI    - WIND CHILL INDEX
  VRB    - VARIABLE WIND DIRECTION
  N/A    - NOT AVAILABLE




USA.gov is the U.S. government's official web portal to all federal, state and local government web resources and services.